TimeEEST,TemperatureF,Dew PointF,Humidity,Sea Level PressureIn,VisibilityMPH,Wind Direction,Wind SpeedMPH,Gust SpeedMPH,PrecipitationIn,Events,Conditions,WindDirDegrees,DateUTC
12:20 AM,66.2,59.0,78,29.89,-9999.0,North,9.2,-,N/A,,Clear,350,2013-09-29 21:20:00
12:50 AM,68.0,59.0,73,29.89,-9999.0,Variable,5.8,-,N/A,,Clear,0,2013-09-29 21:50:00
1:20 AM,68.0,59.0,73,29.89,-9999.0,Variable,8.1,-,N/A,,Clear,0,2013-09-29 22:20:00
1:50 AM,68.0,59.0,73,29.89,-9999.0,ENE,6.9,-,N/A,,Clear,60,2013-09-29 22:50:00
2:20 AM,68.0,59.0,73,29.89,-9999.0,ENE,6.9,-,N/A,,Clear,60,2013-09-29 23:20:00
2:50 AM,68.0,59.0,73,29.89,-9999.0,NE,5.8,-,N/A,,Clear,50,2013-09-29 23:50:00
3:00 AM,67,59,68,29.89,6,NE,5.8,,,,,50,2013-09-30 00:00:00
3:20 AM,68.0,59.0,73,29.89,-9999.0,NE,4.6,-,N/A,,Clear,40,2013-09-30 00:20:00
3:50 AM,66.2,59.0,78,29.89,-9999.0,NNE,4.6,-,N/A,,Clear,20,2013-09-30 00:50:00
4:20 AM,66.2,59.0,78,29.89,-9999.0,NNE,4.6,-,N/A,,Clear,20,2013-09-30 01:20:00
4:50 AM,66.2,59.0,78,29.89,-9999.0,North,4.6,-,N/A,,Clear,10,2013-09-30 01:50:00
5:20 AM,66.2,59.0,78,29.89,-9999.0,NNE,6.9,-,N/A,,Clear,20,2013-09-30 02:20:00
5:50 AM,66.2,59.0,78,29.89,-9999.0,NNE,4.6,-,N/A,,Clear,30,2013-09-30 02:50:00
6:20 AM,66.2,59.0,78,29.86,-9999.0,NE,6.9,-,N/A,,Clear,50,2013-09-30 03:20:00
6:50 AM,66.2,59.0,78,29.86,-9999.0,East,5.8,-,N/A,,Clear,80,2013-09-30 03:50:00
7:20 AM,66.2,59.0,78,29.86,-9999.0,East,5.8,-,N/A,,Clear,80,2013-09-30 04:20:00
7:50 AM,68.0,59.0,73,29.86,-9999.0,East,6.9,-,N/A,,Clear,80,2013-09-30 04:50:00
8:20 AM,68.0,59.0,73,29.86,-9999.0,East,8.1,-,N/A,,Clear,90,2013-09-30 05:20:00
8:50 AM,69.8,59.0,68,29.86,-9999.0,East,8.1,-,N/A,,Clear,90,2013-09-30 05:50:00
9:00 AM,70,59,59,29.86,6,East,8.1,,,,Partly Cloudy,90,2013-09-30 06:00:00
9:20 AM,69.8,59.0,68,29.86,-9999.0,ESE,8.1,-,N/A,,Clear,120,2013-09-30 06:20:00
9:50 AM,71.6,59.0,64,29.86,-9999.0,East,8.1,-,N/A,,Clear,100,2013-09-30 06:50:00
10:20 AM,69.8,57.2,64,29.86,-9999.0,East,6.9,-,N/A,,Clear,90,2013-09-30 07:20:00
10:50 AM,71.6,57.2,60,29.86,-9999.0,East,5.8,-,N/A,,Clear,100,2013-09-30 07:50:00
11:20 AM,73.4,55.4,53,29.83,-9999.0,East,5.8,-,N/A,,Clear,100,2013-09-30 08:20:00
11:50 AM,75.2,53.6,47,29.83,-9999.0,SE,8.1,-,N/A,,Clear,130,2013-09-30 08:50:00
12:20 PM,77.0,51.8,41,29.83,-9999.0,SE,5.8,-,N/A,,Clear,130,2013-09-30 09:20:00
12:50 PM,78.8,50.0,36,29.83,-9999.0,ESE,3.5,-,N/A,,Clear,110,2013-09-30 09:50:00
1:20 PM,80.6,48.2,32,29.80,-9999.0,Variable,4.6,-,N/A,,Clear,0,2013-09-30 10:20:00
1:50 PM,80.6,46.4,30,29.80,-9999.0,WSW,3.5,-,N/A,,Clear,250,2013-09-30 10:50:00
2:20 PM,82.4,48.2,30,29.77,6.2,SSW,3.5,-,N/A,,Scattered Clouds,210,2013-09-30 11:20:00
2:50 PM,82.4,46.4,28,29.77,6.2,West,3.5,-,N/A,,Mostly Cloudy,270,2013-09-30 11:50:00
3:00 PM,82,47,20,29.78,6,West,3.5,,,,Partly Cloudy,270,2013-09-30 12:00:00
3:20 PM,82.4,48.2,30,29.77,6.2,Variable,4.6,-,N/A,,Mostly Cloudy,0,2013-09-30 12:20:00
3:50 PM,82.4,48.2,30,29.77,6.2,West,4.6,-,N/A,,Mostly Cloudy,280,2013-09-30 12:50:00
4:20 PM,84.2,48.2,29,29.74,6.2,West,5.8,-,N/A,,Mostly Cloudy,270,2013-09-30 13:20:00
4:50 PM,84.2,46.4,27,29.74,6.2,NNW,5.8,-,N/A,,Mostly Cloudy,340,2013-09-30 13:50:00
5:20 PM,84.2,46.4,27,29.71,6.2,NNW,5.8,-,N/A,,Mostly Cloudy,340,2013-09-30 14:20:00
5:50 PM,84.2,46.4,27,29.71,6.2,NNW,6.9,-,N/A,,Mostly Cloudy,340,2013-09-30 14:50:00
6:20 PM,80.6,57.2,45,29.71,6.2,NE,8.1,-,N/A,,Mostly Cloudy,40,2013-09-30 15:20:00
6:50 PM,77.0,59.0,54,29.71,6.2,NNE,9.2,-,N/A,,Mostly Cloudy,20,2013-09-30 15:50:00
7:20 PM,73.4,59.0,61,29.71,6.2,NNE,11.5,-,N/A,,Scattered Clouds,30,2013-09-30 16:20:00
7:50 PM,73.4,59.0,61,29.71,6.2,NNE,9.2,-,N/A,,Mostly Cloudy,20,2013-09-30 16:50:00
8:20 PM,71.6,59.0,64,29.71,6.2,NNE,10.4,-,N/A,,Mostly Cloudy,20,2013-09-30 17:20:00
8:50 PM,71.6,59.0,64,29.71,6.2,NE,10.4,-,N/A,,Mostly Cloudy,40,2013-09-30 17:50:00
9:00 PM,72,60,56,29.71,6,NE,10.4,,,,Scattered Clouds,40,2013-09-30 18:00:00
9:20 PM,71.6,59.0,64,29.71,6.2,NE,8.1,-,N/A,,Mostly Cloudy,50,2013-09-30 18:20:00
9:50 PM,71.6,59.0,64,29.71,6.2,ENE,8.1,-,N/A,,Mostly Cloudy,60,2013-09-30 18:50:00
10:20 PM,71.6,59.0,64,29.71,6.2,NE,4.6,-,N/A,,Mostly Cloudy,40,2013-09-30 19:20:00
10:50 PM,71.6,59.0,64,29.68,6.2,NNE,5.8,-,N/A,,Mostly Cloudy,30,2013-09-30 19:50:00
11:20 PM,71.6,59.0,64,29.68,6.2,Variable,3.5,-,N/A,,Mostly Cloudy,0,2013-09-30 20:20:00
11:50 PM,71.6,59.0,64,29.68,6.2,NE,4.6,-,N/A,,Mostly Cloudy,50,2013-09-30 20:50:00